Flag for United Arab Emirates Weather past 2 weeks in Ras al-Khaimah, Ras al-Khaimah, United Arab Emirates

Now
88 °F

Clear.


Feels Like: 102 °F
Forecast: 81 / 103 °F
Wind: 7 mph from South

Location: Ras Al Khaimah International Airport

Current Time: Oct 1, 2014 at 8:31:14 AM

Latest Report: Oct 1, 2014 at 8:00 AM


Visibility: 4 mi

Pressure: 29.86 "Hg

Humidity: 75%

Dew point: 79 °F

Location of Ras al-KhaimahLocation

Historic Weather in Ras al-Khaimah — Graph

°F

Ras al-Khaimah temperature yesterday

Maximum temperature yesterday: 100 °F (at 1:00 PM)
Minimum temperature yesterday: 75 °F (at 5:00 AM)
Average temperature yesterday: 88 °F

Past Weeks' High & Low Weather Summary

 TemperatureHumidityPressure
High106 °F (Sep 17, 1:00 PM)89% (Sep 20, 1:00 AM)29.89 "Hg (Sep 20, 1:00 AM)
Low75 °F (Sep 29, 6:00 AM)15% (Sep 20, 3:00 PM)29.56 "Hg (Sep 16, 4:00 PM)
Average91 °F55%29.72 "Hg
* Reported Sep 16 7:00 AM — Oct 1 7:00 AM, Ras al-Khaimah, Weather by CustomWeather, © 2014

Note: Actual official high and low records may vary slightly from our data, if they occured in-between our weather recording intervals... More about our weather records

Advertising

Ras al-Khaimah weather history for previous 24 hours

 ConditionsComfort  
Time TempWeatherWind HumidityBarometerVisibility
7:00 AM
Oct 1
81 °FHaze.7 mph89%29.86 "Hg2 mi
6:00 AM79 °FHaze.5 mph89%29.83 "Hg2 mi
5:00 AM79 °FHaze.3 mph89%29.83 "Hg3 mi
4:00 AM81 °FHaze.3 mph84%29.80 "Hg3 mi
3:00 AM81 °FHaze.3 mph84%29.80 "Hg3 mi
2:00 AM81 °FHaze.3 mph84%29.80 "Hg3 mi
1:00 AM82 °FHaze.No wind79%29.80 "Hg3 mi
12:00 AM82 °FClear.No wind84%29.83 "Hg4 mi
11:00 PM
Sep 30
84 °FClear.No wind84%29.83 "Hg10 mi
10:00 PM86 °FClear.2 mph79%29.83 "Hg10 mi
9:00 PM86 °FClear.5 mph79%29.83 "Hg10 mi
8:00 PM88 °FClear.6 mph75%29.83 "Hg10 mi
7:00 PM90 °FClear.8 mph67%29.80 "Hg10 mi
6:00 PM91 °FSunny.10 mph59%29.80 "Hg10 mi
5:00 PM95 °FSunny.14 mph47%29.77 "Hg10 mi
4:00 PM97 °FSunny.14 mph37%29.59 "Hg10 mi
3:00 PM99 °FSunny.14 mph33%29.77 "Hg10 mi
2:00 PM100 °FSunny.13 mph29%29.80 "Hg10 mi
1:00 PM100 °FSunny.13 mph29%29.80 "Hg10 mi
12:00 PM99 °FSunny.8 mph37%29.83 "Hg10 mi
11:00 AM97 °FSunny.5 mph42%29.86 "Hg10 mi
10:00 AM93 °FSunny.6 mph49%29.89 "Hg10 mi
9:00 AM91 °FSunny.2 mph59%29.89 "Hg10 mi
8:00 AM84 °FSunny.2 mph62%29.86 "Hg10 mi
Weather by CustomWeather, © 2014

See weather overviewHow to use our weather pages